Location: Oroua River
(40.4333°S, 175.4333°E)
Time: 14:50:25
(UTC+00:00)

SL-27 R/B - Pass Details

Date: 03 February 2023
Orbit: 399 x 435 km, 74.7° (Epoch: 22 March)

Event Time Altitude Azimuth Distance (km) Brightness Sun altitude
Rises 15:13:30 0° 197° (SSW) 2,371 6.5 -21.9°
Reaches altitude 10° 15:15:33 10° 196° (SSW) 1,505 5.4 -21.6°
Enters shadow 15:18:32 69° 169° (S) 455 2.5 -21.2°
